BCS2KK LKTB-EDDP

Flight info

Callsign BCS2KK
Flight time 0h 41m
Altitude 30000
Route TUMKA DCT VLM DCT LEGAZ DCT BEFRE DCT IVQOQ T951 YAWOY YAWOY1V
Aircraft A306/H-SDE3FGHIRWY/LB1

Departure

Time 2026-04-26 21:52
Airport Brno-Tuřany Airport (LKTB)

Arrival

Time 2026-04-26 22:34
Airport Leipzig/Halle Airport (EDDP)
Time Latitude Longitude Altitude Speed Heading
2026-04-26 21:40 49.15424 16.68671 793 ft 0 kts 189°
2026-04-26 21:48 49.15395 16.68620 793 ft 9 kts 259°
2026-04-26 21:48 49.15397 16.68530 793 ft 8 kts 277°
2026-04-26 21:48 49.15404 16.68444 793 ft 8 kts 277°
2026-04-26 21:48 49.15414 16.68327 793 ft 14 kts 277°
2026-04-26 21:49 49.15427 16.68177 793 ft 15 kts 277°
2026-04-26 21:49 49.15440 16.68022 793 ft 15 kts 277°
2026-04-26 21:49 49.15454 16.67870 793 ft 14 kts 277°
2026-04-26 21:49 49.15466 16.67724 793 ft 13 kts 274°
2026-04-26 21:50 49.15421 16.67639 793 ft 10 kts 202°
2026-04-26 21:50 49.15328 16.67619 789 ft 17 kts 179°
2026-04-26 21:50 49.15281 16.67699 788 ft 0 kts 97°
2026-04-26 21:52 49.15274 16.67783 789 ft 30 kts 98°
2026-04-26 21:52 49.15209 16.68570 786 ft 116 kts 96°
2026-04-26 21:52 49.15072 16.70158 983 ft 176 kts 95°
2026-04-26 21:52 49.14948 16.72118 2082 ft 195 kts 94°
2026-04-26 21:53 49.14822 16.74286 2946 ft 209 kts 94°
2026-04-26 21:53 49.14821 16.76585 3646 ft 231 kts 76°
2026-04-26 21:53 49.15659 16.78706 4450 ft 243 kts 38°
2026-04-26 21:53 49.17250 16.79644 5356 ft 253 kts
2026-04-26 21:54 49.18979 16.78966 6197 ft 265 kts 327°
2026-04-26 21:54 49.20350 16.77132 7467 ft 258 kts 316°
2026-04-26 21:54 49.21513 16.75031 8597 ft 262 kts 310°
2026-04-26 21:54 49.22855 16.73198 9608 ft 263 kts 322°
2026-04-26 21:55 49.24310 16.71466 10611 ft 267 kts 321°
2026-04-26 21:55 49.25812 16.69626 11171 ft 287 kts 320°
2026-04-26 21:55 49.27411 16.67613 11560 ft 307 kts 319°
2026-04-26 21:55 49.28881 16.65127 11885 ft 327 kts 301°
2026-04-26 21:56 49.29775 16.61825 12226 ft 345 kts 290°
2026-04-26 21:56 49.30495 16.58243 12679 ft 357 kts 288°
2026-04-26 21:56 49.31216 16.54573 13283 ft 362 kts 288°
2026-04-26 21:56 49.31952 16.50865 13953 ft 366 kts 288°
2026-04-26 21:57 49.32702 16.47119 14641 ft 369 kts 288°
2026-04-26 21:57 49.33460 16.43345 15319 ft 372 kts 288°
2026-04-26 21:57 49.34222 16.39550 15981 ft 374 kts 288°
2026-04-26 21:57 49.34994 16.35710 16606 ft 378 kts 288°
2026-04-26 21:58 49.35775 16.31828 17231 ft 381 kts 288°
2026-04-26 21:58 49.36559 16.27935 17825 ft 384 kts 288°
2026-04-26 21:58 49.37345 16.24002 18399 ft 387 kts 288°
2026-04-26 21:58 49.37959 16.20023 18943 ft 390 kts 283°
2026-04-26 21:59 49.38444 16.15905 19485 ft 393 kts 281°
2026-04-26 21:59 49.38906 16.11759 19999 ft 396 kts 281°
2026-04-26 21:59 49.39370 16.07580 20469 ft 398 kts 281°
2026-04-26 21:59 49.39838 16.03378 20970 ft 400 kts 281°
2026-04-26 22:00 49.40310 15.99153 21418 ft 403 kts 281°
2026-04-26 22:00 49.40962 15.94951 21831 ft 405 kts 288°
2026-04-26 22:00 49.42030 15.90928 22241 ft 409 kts 294°
2026-04-26 22:00 49.43277 15.86995 22652 ft 411 kts 296°
2026-04-26 22:01 49.44612 15.83098 23071 ft 413 kts 297°
2026-04-26 22:01 49.45986 15.79200 23454 ft 416 kts 297°
2026-04-26 22:01 49.47369 15.75281 23809 ft 418 kts 297°
2026-04-26 22:01 49.48746 15.71343 24146 ft 410 kts 297°
2026-04-26 22:02 49.50041 15.67596 24252 ft 384 kts 297°
2026-04-26 22:02 49.51341 15.63991 24277 ft 392 kts 301°
2026-04-26 22:02 49.53015 15.60598 24279 ft 405 kts 310°
2026-04-26 22:02 49.55011 15.57535 24290 ft 416 kts 314°
2026-04-26 22:03 49.57146 15.54493 24287 ft 420 kts 315°
2026-04-26 22:03 49.59310 15.51464 24287 ft 420 kts 315°
2026-04-26 22:03 49.61479 15.48436 24285 ft 420 kts 315°
2026-04-26 22:03 49.63645 15.45412 24285 ft 420 kts 315°
2026-04-26 22:04 49.65812 15.42382 24285 ft 421 kts 315°
2026-04-26 22:04 49.67983 15.39345 24281 ft 421 kts 315°
2026-04-26 22:04 49.70152 15.36306 24281 ft 421 kts 315°
2026-04-26 22:04 49.72324 15.33261 24283 ft 421 kts 315°
2026-04-26 22:05 49.74494 15.30213 24286 ft 421 kts 315°
2026-04-26 22:05 49.76629 15.27210 24284 ft 421 kts 315°
2026-04-26 22:05 49.78799 15.24155 24286 ft 422 kts 315°
2026-04-26 22:05 49.80974 15.21090 24285 ft 422 kts 315°
2026-04-26 22:06 49.83146 15.18023 24286 ft 422 kts 315°
2026-04-26 22:06 49.85314 15.14957 24284 ft 423 kts 315°
2026-04-26 22:06 49.87487 15.11880 24289 ft 423 kts 315°
2026-04-26 22:06 49.89659 15.08801 24294 ft 423 kts 315°
2026-04-26 22:07 49.91835 15.05713 24294 ft 424 kts 315°
2026-04-26 22:07 49.94010 15.02622 24296 ft 424 kts 315°
2026-04-26 22:07 49.96190 14.99522 24291 ft 424 kts 315°
2026-04-26 22:07 49.98367 14.96422 24294 ft 425 kts 315°
2026-04-26 22:08 50.00542 14.93322 24289 ft 425 kts 315°
2026-04-26 22:08 50.02724 14.90204 24292 ft 424 kts 315°
2026-04-26 22:08 50.04875 14.87132 24289 ft 423 kts 315°
2026-04-26 22:08 50.07030 14.84046 24297 ft 422 kts 315°
2026-04-26 22:09 50.09196 14.80943 24289 ft 422 kts 315°
2026-04-26 22:09 50.11354 14.77844 24299 ft 423 kts 315°
2026-04-26 22:09 50.13522 14.74726 24291 ft 423 kts 315°
2026-04-26 22:09 50.15686 14.71610 24290 ft 424 kts 315°
2026-04-26 22:10 50.17851 14.68490 24288 ft 424 kts 315°
2026-04-26 22:10 50.20016 14.65364 24292 ft 425 kts 315°
2026-04-26 22:10 50.22189 14.62225 24295 ft 425 kts 315°
2026-04-26 22:10 50.24363 14.59080 24291 ft 425 kts 315°
2026-04-26 22:11 50.26531 14.55941 24297 ft 425 kts 315°
2026-04-26 22:11 50.28699 14.52795 24300 ft 426 kts 315°
2026-04-26 22:11 50.30868 14.49644 24294 ft 426 kts 315°
2026-04-26 22:11 50.33039 14.46489 24291 ft 426 kts 315°
2026-04-26 22:12 50.35210 14.43327 24290 ft 426 kts 315°
2026-04-26 22:12 50.37349 14.40209 24291 ft 426 kts 315°
2026-04-26 22:12 50.39516 14.37045 24288 ft 426 kts 315°
2026-04-26 22:12 50.41686 14.33874 24288 ft 427 kts 315°
2026-04-26 22:13 50.43857 14.30698 24297 ft 427 kts 315°
2026-04-26 22:13 50.46028 14.27515 24295 ft 427 kts 315°
2026-04-26 22:13 50.48196 14.24333 24289 ft 427 kts 315°
2026-04-26 22:13 50.50366 14.21147 24291 ft 427 kts 315°
2026-04-26 22:14 50.52535 14.17955 24294 ft 427 kts 314°
2026-04-26 22:14 50.54698 14.14765 24298 ft 427 kts 314°
2026-04-26 22:14 50.56863 14.11571 24293 ft 426 kts 314°
2026-04-26 22:14 50.59027 14.08375 24294 ft 429 kts 314°
2026-04-26 22:15 50.61220 14.05132 24297 ft 436 kts 314°
2026-04-26 22:15 50.63434 14.01850 24299 ft 438 kts 314°
2026-04-26 22:15 50.65650 13.98562 24290 ft 438 kts 314°
2026-04-26 22:15 50.67871 13.95263 24293 ft 438 kts 314°
2026-04-26 22:16 50.70089 13.91965 24290 ft 438 kts 314°
2026-04-26 22:16 50.72313 13.88654 24292 ft 438 kts 314°
2026-04-26 22:16 50.74533 13.85345 24299 ft 438 kts 314°
2026-04-26 22:16 50.76710 13.82095 24296 ft 433 kts 314°
2026-04-26 22:17 50.78879 13.78854 24148 ft 424 kts 314°
2026-04-26 22:17 50.81003 13.75677 23309 ft 417 kts 314°
2026-04-26 22:17 50.83101 13.72531 22487 ft 411 kts 314°
2026-04-26 22:17 50.85150 13.69454 21829 ft 401 kts 314°
2026-04-26 22:18 50.87148 13.66451 21208 ft 392 kts 314°
2026-04-26 22:18 50.89102 13.63509 20592 ft 384 kts 314°
2026-04-26 22:18 50.91022 13.60613 19975 ft 378 kts 314°
2026-04-26 22:18 50.92892 13.57789 19378 ft 373 kts 314°
2026-04-26 22:19 50.94781 13.54936 18770 ft 368 kts 315°
2026-04-26 22:19 50.96621 13.52151 18159 ft 364 kts 315°
2026-04-26 22:19 50.98419 13.49429 17538 ft 360 kts 315°
2026-04-26 22:19 51.00224 13.46694 16909 ft 357 kts 315°
2026-04-26 22:20 51.02012 13.43980 16280 ft 354 kts 315°
2026-04-26 22:20 51.03189 13.42193 15862 ft 351 kts 315°
2026-04-26 22:20 51.05531 13.38630 15062 ft 346 kts 315°
2026-04-26 22:20 51.07267 13.35989 14431 ft 343 kts 315°
2026-04-26 22:21 51.08981 13.33379 13797 ft 340 kts 315°
2026-04-26 22:21 51.10683 13.30782 13199 ft 337 kts 315°
2026-04-26 22:21 51.12364 13.28212 12579 ft 334 kts 315°
2026-04-26 22:21 51.14032 13.25658 11963 ft 331 kts 315°
2026-04-26 22:22 51.15682 13.23131 11376 ft 327 kts 315°
2026-04-26 22:22 51.17314 13.20634 10910 ft 321 kts 315°
2026-04-26 22:22 51.18875 13.18246 10817 ft 302 kts 315°
2026-04-26 22:22 51.20342 13.15994 10733 ft 285 kts 315°
2026-04-26 22:23 51.21729 13.13862 10642 ft 270 kts 315°
2026-04-26 22:23 51.23052 13.11823 10545 ft 259 kts 315°
2026-04-26 22:23 51.24326 13.09860 10437 ft 251 kts 315°
2026-04-26 22:23 51.25581 13.07922 10326 ft 252 kts 315°
2026-04-26 22:24 51.26845 13.05970 10011 ft 254 kts 315°
2026-04-26 22:24 51.28122 13.04001 9564 ft 257 kts 315°
2026-04-26 22:24 51.29412 13.02012 9166 ft 259 kts 315°
2026-04-26 22:24 51.30709 13.00007 8780 ft 260 kts 315°
2026-04-26 22:25 51.32017 12.97985 8394 ft 262 kts 315°
2026-04-26 22:25 51.33321 12.95959 7953 ft 264 kts 315°
2026-04-26 22:25 51.34654 12.93888 7359 ft 270 kts 315°
2026-04-26 22:25 51.35994 12.91818 6923 ft 270 kts 315°
2026-04-26 22:26 51.37343 12.89731 6461 ft 268 kts 315°
2026-04-26 22:26 51.38682 12.87654 6039 ft 267 kts 315°
2026-04-26 22:26 51.40015 12.85581 5622 ft 266 kts 315°
2026-04-26 22:26 51.41335 12.83533 5237 ft 262 kts 315°
2026-04-26 22:27 51.42604 12.81458 5002 ft 260 kts 310°
2026-04-26 22:27 51.43509 12.78957 4545 ft 263 kts 287°
2026-04-26 22:27 51.43693 12.76048 4131 ft 263 kts 269°
2026-04-26 22:27 51.43576 12.73148 3980 ft 260 kts 266°
2026-04-26 22:28 51.43430 12.70252 3977 ft 261 kts 266°
2026-04-26 22:28 51.43293 12.67438 3918 ft 251 kts 266°
2026-04-26 22:28 51.43167 12.64704 3784 ft 241 kts 266°
2026-04-26 22:28 51.43047 12.62083 3653 ft 231 kts 266°
2026-04-26 22:29 51.42934 12.59559 3535 ft 223 kts 266°
2026-04-26 22:29 51.42875 12.57124 3419 ft 215 kts 269°
2026-04-26 22:29 51.42785 12.54763 3261 ft 210 kts 266°
2026-04-26 22:29 51.42671 12.52463 3161 ft 201 kts 266°
2026-04-26 22:30 51.42562 12.50290 3018 ft 191 kts 266°
2026-04-26 22:30 51.42460 12.48198 2980 ft 190 kts 266°
2026-04-26 22:30 51.42360 12.46073 2962 ft 192 kts 266°
2026-04-26 22:30 51.42263 12.43954 2752 ft 190 kts 267°
2026-04-26 22:31 51.42165 12.41851 2488 ft 188 kts 266°
2026-04-26 22:31 51.42067 12.39760 2232 ft 188 kts 266°
2026-04-26 22:31 51.41971 12.37696 1973 ft 180 kts 266°
2026-04-26 22:31 51.41878 12.35767 1735 ft 167 kts 266°
2026-04-26 22:32 51.41794 12.34006 1544 ft 150 kts 266°
2026-04-26 22:32 51.41719 12.32419 1348 ft 139 kts 267°
2026-04-26 22:32 51.41643 12.30862 1153 ft 137 kts 266°
2026-04-26 22:32 51.41572 12.29355 994 ft 133 kts 268°
2026-04-26 22:33 51.41503 12.27890 831 ft 133 kts 266°
2026-04-26 22:33 51.41369 12.24977 489 ft 128 kts 266°
2026-04-26 22:33 51.41313 12.23766 479 ft 85 kts 264°
2026-04-26 22:34 51.41277 12.23063 471 ft 47 kts 265°
2026-04-26 22:34 51.41203 12.22614 467 ft 29 kts 240°
2026-04-26 22:34 51.41092 12.22608 467 ft 17 kts 95°
2026-04-26 22:34 51.41098 12.22780 470 ft 14 kts 85°
2026-04-26 22:35 51.41105 12.22916 471 ft 10 kts 85°
2026-04-26 22:35 51.41108 12.22984 475 ft 8 kts 85°
2026-04-26 22:35 51.41112 12.23058 476 ft 6 kts 85°
2026-04-26 22:35 51.41117 12.23167 477 ft 15 kts 85°
2026-04-26 22:36 51.41126 12.23370 480 ft 18 kts 86°
2026-04-26 22:36 51.41133 12.23536 478 ft 14 kts 85°
2026-04-26 22:36 51.41142 12.23694 477 ft 15 kts 85°
2026-04-26 22:36 51.41152 12.23876 480 ft 17 kts 85°
2026-04-26 22:37 51.41158 12.24044 476 ft 16 kts 86°
2026-04-26 22:37 51.41166 12.24241 476 ft 17 kts 85°
2026-04-26 22:37 51.41145 12.24378 476 ft 12 kts 144°
2026-04-26 22:37 51.41084 12.24320 477 ft 13 kts 262°
2026-04-26 22:38 51.41027 12.24217 475 ft 18 kts 180°
2026-04-26 22:38 51.40936 12.24258 468 ft 10 kts 118°
2026-04-26 22:38 51.40935 12.24336 473 ft 0 kts 85°